Location: Alsip
(41.6689°N, 87.7387°W)
Time: 13:33:08
(UTC+00:00)

Cosmos 2369 Rocket - Pass Details

Date: 14 July 2020
Orbit: 830 x 851 km, 71.0° (Epoch: 04 August)

Event Time Altitude Azimuth Distance (km) Brightness Sun altitude
Rises 04:23:45 0° 339° (NNW) 3,383 6.8 -23.1°
Reaches altitude 10° 04:26:15 10° 344° (NNW) 2,447 5.7 -23.3°
Maximum altitude 04:31:45 56° 62° (ENE) 987 2.5 -23.7°
Enters shadow 04:33:02 46° 108° (ESE) 1,115 2.5 -23.8°
